Date,TemperatureHighF,TemperatureAvgF,TemperatureLowF,DewpointHighF,DewpointAvgF,DewpointLowF,HumidityHigh,HumidityAvg,HumidityLow,PressureMaxIn,PressureMinIn,WindSpeedMaxMPH,WindSpeedAvgMPH,GustSpeedMaxMPH,PrecipitationSumIn
2013-5-1,82,73,63,-100,-100,-100,0,0,100,0.00,40.00,16,6,22,0.00
2013-5-2,61,50,41,-100,-100,-100,0,0,100,0.00,40.00,13,10,22,0.00
2013-5-3,53,43,39,-100,-100,-100,0,0,100,0.00,40.00,12,8,19,1.55
2013-5-4,66,58,52,-100,-100,-100,0,0,100,0.00,40.00,15,8,19,0.55
2013-5-5,74,62,53,-100,-100,-100,0,0,100,0.00,40.00,12,4,15,0.08
2013-5-6,75,64,54,-100,-100,-100,0,0,100,0.00,40.00,10,5,15,0.00
2013-5-7,78,64,55,-100,-100,-100,0,0,100,0.00,40.00,6,2,7,0.00
2013-5-8,81,67,55,-100,-100,-100,0,0,100,0.00,40.00,6,2,12,0.00
2013-5-9,71,63,60,-100,-100,-100,0,0,100,0.00,40.00,10,4,15,0.61
2013-5-10,61,52,48,-100,-100,-100,0,0,100,0.00,40.00,13,7,20,0.27
2013-5-11,56,52,47,-100,-100,-100,0,0,100,0.00,40.00,19,8,28,0.01
2013-5-12,57,48,39,-100,-100,-100,0,0,100,0.00,40.00,12,6,20,0.01
2013-5-13,69,56,43,-100,-100,-100,0,0,100,0.00,40.00,10,3,13,0.00
2013-5-14,89,68,59,-100,-100,-100,0,0,100,0.00,40.00,13,7,17,0.00
2013-5-15,82,74,63,-100,-100,-100,0,0,100,0.00,40.00,17,7,24,0.00
2013-5-16,85,65,59,-100,-100,-100,0,0,100,0.00,40.00,9,3,14,0.00
2013-5-17,79,71,64,-100,-100,-100,0,0,100,0.00,40.00,15,5,18,0.00
2013-5-18,81,71,63,-100,-100,-100,0,0,100,0.00,40.00,11,5,16,0.00
2013-5-19,87,74,67,-100,-100,-100,0,0,100,0.00,40.00,25,9,37,0.31
2013-5-20,80,71,65,-100,-100,-100,0,0,100,0.00,40.00,24,9,28,0.43
2013-5-21,76,71,64,-100,-100,-100,0,0,100,0.00,40.00,18,9,23,0.04
2013-5-22,69,64,60,-100,-100,-100,0,0,100,0.00,40.00,12,6,18,0.01
2013-5-23,65,60,55,-100,-100,-100,0,0,100,0.00,40.00,14,7,20,0.01
2013-5-24,67,56,45,-100,-100,-100,0,0,100,0.00,40.00,12,6,16,0.01
2013-5-25,60,53,49,-100,-100,-100,0,0,100,0.00,40.00,15,8,19,0.51
2013-5-26,58,53,51,-100,-100,-100,0,0,100,0.00,40.00,18,11,21,1.34
2013-5-27,70,63,58,-100,-100,-100,0,0,100,0.00,40.00,15,9,19,1.01
2013-5-28,74,68,64,-100,-100,-100,0,0,100,0.00,40.00,28,8,34,0.25
2013-5-29,82,70,63,-100,-100,-100,0,0,100,0.00,40.00,187,13,187,0.26
2013-5-30,75,72,71,-100,-100,-100,0,0,100,0.00,40.00,10,8,14,0.07
2013-5-31,73,72,69,-100,-100,-100,0,0,100,0.00,40.00,15,8,25,0.00